Location: Cabrera Baja
(40.4089°N, 4.3354°W)
Time: 03:31:16
(UTC+00:00)

Meteor 2-6 Rocket - Pass Details

Date: 14 July 2020
Orbit: 804 x 916 km, 81.3° (Epoch: 03 August)

Event Time Altitude Azimuth Distance (km) Brightness Sun altitude
Rises 23:58:51 0° 349° (N) 3,342 8.6 -27.7°
Reaches altitude 10° 00:01:16 10° 349° (N) 2,399 7.5 -27.7°
Enters shadow 00:06:28 80° 303° (WNW) 821 4.0 -27.8°
